Content
SEND FEEDBACK

Daily
Averages
Monthly
Summary
Greece

ANDRAVIDHA, GREECE


Home > Europe > Greece
Elevation: 50 feet     Latitude: 37 55N     Longitude: 021 17E

WEATHER
 
SELECT A DAY
Number of Records: 87,909;   Date Range: 7/11/96 - 8/10/14
 
SHARE

PRINT THIS DATA

[ ← Previous Day ]
WEATHER ALMANAC - JANUARY 23, 2013
[ Next Day → ]
[ °C ]   °F
Weather ElementAverageHighLow
Temperature53.6 °F61 °F (2:00 pm)47 °F (8:00 am)
Dewpoint43.7 °F46.4 °F (9:50 am)41 °F (5:50 am)
Humidity69.6 %87 % (1:50 am)43 % (2:00 pm)
Barometer29.95 in30.01 in (10:50 am)29.89 in (1:50 am)
Wind Speed2.5 mph6.9 mph (7:50 am)
Weather ElementAverage
Visibility6.2 mi
Wind DirectionENE (71.8 °)

Weather ElementTotal
Precipitation---
Heating Degree Days11 (Base 65)
Growing Degree Days4 (Base 50)
Averaged from 42 records on January 23, 2013
WEATHER CONDITIONS BREAKOUT
WIND DIRECTION BREAKOUT
WEATHER BY HOUR - JANUARY 23, 2013
[ °C ]   °F
Local TimeTemperatureDewpointHumidityBarometerVisibilityWind DirectionWind SpeedGust SpeedPrecipitationEventsConditions
1:50 AM48.2 °F44.6 °F87 %29.89 in6.2 miCalmScattered Clouds
2:00 AM48.0 °F44.0 °F81 %29.89 in6.0 miCalmMostly Cloudy
2:50 AM48.2 °F44.6 °F87 %29.89 in6.2 miCalmScattered Clouds
3:50 AM51.8 °F42.8 °F71 %29.89 in6.2 miCalmScattered Clouds
4:50 AM51.8 °F42.8 °F71 %29.89 in6.2 miCalmScattered Clouds
5:20 AM51.8 °F42.8 °F71 %29.89 in6.2 miCalmScattered Clouds
5:50 AM53.6 °F41.0 °F62 %29.92 in6.2 miWest (280°)5.8 mphScattered Clouds
6:20 AM51.8 °F41.0 °F67 %29.92 in6.2 miCalmScattered Clouds
6:50 AM48.2 °F41.0 °F76 %29.92 in6.2 miCalmScattered Clouds
7:20 AM50.0 °F41.0 °F71 %29.95 in6.2 miCalmScattered Clouds
7:50 AM48.2 °F42.8 °F82 %29.95 in6.2 miEast (100°)6.9 mphScattered Clouds
8:00 AM47.0 °F42.0 °F76 %29.96 in6.0 miEast (100°)6.9 mphPartly Cloudy
8:20 AM48.2 °F42.8 °F82 %29.95 in6.2 miCalmScattered Clouds
8:50 AM48.2 °F42.8 °F82 %29.98 in6.2 miCalmScattered Clouds
9:20 AM48.2 °F42.8 °F82 %29.98 in6.2 miCalmScattered Clouds
9:50 AM53.6 °F46.4 °F77 %29.98 in6.2 miCalmPartly Cloudy
10:50 AM60.8 °F41.0 °F48 %30.01 in6.2 miCalmPartly Cloudy
11:20 AM60.8 °F41.0 °F48 %30.01 in6.2 miCalmPartly Cloudy
11:50 AM57.2 °F42.8 °F59 %30.01 in6.2 miCalmScattered Clouds
12:20 PM57.2 °F42.8 °F59 %30.01 in6.2 miCalmScattered Clouds
12:50 PM57.2 °F44.6 °F63 %29.98 in6.2 miCalmScattered Clouds
1:50 PM60.8 °F44.6 °F55 %29.98 in6.2 miCalmMostly Cloudy
2:00 PM61.0 °F44.0 °F43 %29.98 in6.0 miCalmPartly Cloudy
2:20 PM60.8 °F44.6 °F55 %29.98 in6.2 miCalmMostly Cloudy
2:50 PM60.8 °F42.8 °F52 %29.98 in6.2 miSSW (200°)6.9 mphMostly Cloudy
3:20 PM60.8 °F42.8 °F52 %29.98 in6.2 miSSW (200°)6.9 mphMostly Cloudy
3:50 PM59.0 °F44.6 °F59 %29.95 in6.2 miCalmMostly Cloudy
4:50 PM57.2 °F46.4 °F67 %29.95 in6.2 miSouth (180°)4.6 mphMostly Cloudy
5:20 PM57.2 °F46.4 °F67 %29.95 in6.2 miSouth (180°)4.6 mphMostly Cloudy
5:50 PM53.6 °F46.4 °F77 %29.95 in6.2 miCalmMostly Cloudy
6:20 PM53.6 °F46.4 °F77 %29.95 in6.2 miCalmMostly Cloudy
6:50 PM51.8 °F44.6 °F76 %29.95 in6.2 miSSE (150°)4.6 mphMostly Cloudy
7:20 PM51.8 °F44.6 °F76 %29.95 in6.2 miSSE (150°)4.6 mphMostly Cloudy
7:50 PM51.8 °F44.6 °F76 %29.98 in6.2 miSSE (160°)4.6 mphMostly Cloudy
8:00 PM52.0 °F45.0 °F68 %29.98 in6.0 miSSE (160°)4.6 mphScattered Clouds
8:50 PM51.8 °F44.6 °F76 %29.95 in6.2 miSSE (150°)4.6 mphMostly Cloudy
9:20 PM51.8 °F44.6 °F76 %29.95 in6.2 miSSE (150°)4.6 mphMostly Cloudy
9:50 PM51.8 °F44.6 °F76 %29.95 in6.2 miSSE (150°)6.9 mphMostly Cloudy
10:20 PM51.8 °F44.6 °F76 %29.95 in6.2 miSSE (150°)6.9 mphMostly Cloudy
10:50 PM53.6 °F44.6 °F72 %29.95 in6.2 miSE (140°)6.9 mphMostly Cloudy
11:20 PM53.6 °F44.6 °F72 %29.95 in6.2 miSE (140°)6.9 mphMostly Cloudy
11:50 PM53.6 °F44.6 °F72 %29.95 in6.2 miSE (130°)6.9 mphMostly Cloudy
Hourly data recorded from LGAD, located miles away from Andravidha, Greece







STORIES FROM OUR PARTNERS